• In Czech Republic
  • List of Countries
  • For 7 days
  • Water Temperature
  • Satellite Maps
  • Weather Map
  • Weather Widgets
  • user-avatar
    Login

    Hourly Weather Poddubnoe

    Today, 16 July, Monday

    Time Temperature Precipitation Wind Pressure Humidity
    00:00 +19°C° 0 mm 1 mps 737 mmHg 95%
    01:00 +19°C° 0 mm 1 mps 737 mmHg 96%
    02:00 +18°C° 0 mm 1 mps 737 mmHg 96%
    03:00 +19°C° 0.2 mm 1 mps 737 mmHg 96%
    04:00 +18°C° 0.2 mm 2 mps 737 mmHg 97%
    05:00 +18°C° 0.2 mm 2 mps 737 mmHg 97%
    06:00 +20°C° 0 mm 2 mps 737 mmHg 91%
    07:00 +21°C° 0 mm 2 mps 738 mmHg 86%
    08:00 +24°C° 0 mm 3 mps 738 mmHg 81%
    09:00 +25°C° 0.2 mm 3 mps 738 mmHg 73%
    10:00 +27°C° 0.2 mm 3 mps 737 mmHg 66%
    11:00 +28°C° 0.2 mm 4 mps 737 mmHg 58%
    12:00 +28°C° 0.4 mm 4 mps 737 mmHg 61%
    13:00 +28°C° 0.4 mm 4 mps 737 mmHg 64%
    14:00 +27°C° 0.4 mm 4 mps 737 mmHg 67%
    15:00 +27°C° 0 mm 3 mps 737 mmHg 66%
    16:00 +27°C° 0 mm 3 mps 737 mmHg 64%
    17:00 +27°C° 0 mm 3 mps 737 mmHg 63%
    18:00 +26°C° 0 mm 3 mps 737 mmHg 70%
    19:00 +24°C° 0 mm 3 mps 736 mmHg 77%
    20:00 +23°C° 0 mm 2 mps 736 mmHg 84%
    21:00 +21°C° 0 mm 2 mps 736 mmHg 86%
    22:00 +20°C° 0 mm 2 mps 736 mmHg 88%
    23:00 +20°C° 0 mm 3 mps 736 mmHg 90%

    Tomorrow, 17 July, Tuesday

    Time Temperature Precipitation Wind Pressure Humidity
    00:00 +19°C° 0 mm 3 mps 736 mmHg 91%
    01:00 +19°C° 0 mm 3 mps 736 mmHg 93%
    02:00 +19°C° 0 mm 3 mps 736 mmHg 94%
    03:00 +19°C° 0 mm 3 mps 736 mmHg 93%
    04:00 +19°C° 0 mm 3 mps 736 mmHg 92%
    05:00 +19°C° 0 mm 3 mps 736 mmHg 91%
    06:00 +21°C° 0 mm 4 mps 736 mmHg 84%
    07:00 +23°C° 0 mm 4 mps 736 mmHg 77%
    08:00 +25°C° 0 mm 5 mps 736 mmHg 70%
    09:00 +26°C° 0 mm 5 mps 736 mmHg 65%
    10:00 +28°C° 0 mm 5 mps 736 mmHg 60%
    11:00 +29°C° 0 mm 5 mps 736 mmHg 55%
    12:00 +29°C° 0 mm 5 mps 736 mmHg 53%
    13:00 +30°C° 0 mm 5 mps 736 mmHg 51%
    14:00 +30°C° 0 mm 6 mps 735 mmHg 50%
    15:00 +29°C° 0 mm 5 mps 735 mmHg 51%
    16:00 +29°C° 0 mm 5 mps 735 mmHg 53%
    17:00 +28°C° 0 mm 5 mps 735 mmHg 54%
    18:00 +27°C° 0 mm 4 mps 735 mmHg 61%
    19:00 +25°C° 0 mm 4 mps 735 mmHg 68%
    20:00 +24°C° 0 mm 3 mps 735 mmHg 75%
    21:00 +22°C° 0 mm 3 mps 735 mmHg 77%
    22:00 +21°C° 0 mm 3 mps 735 mmHg 78%
    23:00 +21°C° 0 mm 3 mps 735 mmHg 79%

    Day after tomorrow, 18 July, Wednesday

    Time Temperature Precipitation Wind Pressure Humidity
    00:00 +20°C° 0 mm 3 mps 735 mmHg 78%
    01:00 +20°C° 0 mm 3 mps 734 mmHg 78%
    02:00 +20°C° 0 mm 4 mps 734 mmHg 77%
    03:00 +20°C° 0 mm 4 mps 734 mmHg 78%
    04:00 +20°C° 0 mm 4 mps 734 mmHg 79%
    05:00 +19°C° 0 mm 4 mps 734 mmHg 81%
    06:00 +20°C° 0.4 mm 4 mps 734 mmHg 83%
    07:00 +20°C° 0.4 mm 4 mps 734 mmHg 85%
    08:00 +20°C° 0.4 mm 4 mps 734 mmHg 87%
    09:00 +21°C° 0.4 mm 4 mps 734 mmHg 85%
    10:00 +21°C° 0.4 mm 4 mps 734 mmHg 83%
    11:00 +22°C° 0.4 mm 4 mps 734 mmHg 82%
    12:00 +22°C° 1.3 mm 4 mps 734 mmHg 82%
    13:00 +23°C° 1.3 mm 4 mps 734 mmHg 83%
    14:00 +23°C° 1.3 mm 4 mps 734 mmHg 84%
    15:00 +23°C° 0.8 mm 4 mps 734 mmHg 84%
    16:00 +23°C° 0.8 mm 4 mps 733 mmHg 84%
    17:00 +23°C° 0.8 mm 4 mps 733 mmHg 85%
    18:00 +22°C° 0.2 mm 4 mps 733 mmHg 88%
    19:00 +21°C° 0.2 mm 3 mps 733 mmHg 90%
    20:00 +19°C° 0.2 mm 3 mps 733 mmHg 93%
    21:00 +19°C° 0.1 mm 3 mps 733 mmHg 94%
    22:00 +19°C° 0.1 mm 3 mps 733 mmHg 95%
    23:00 +18°C° 0.1 mm 3 mps 733 mmHg 95%

    19 July, Thursday

    Time Temperature Precipitation Wind Pressure Humidity
    00:00 +18°C° 0.1 mm 3 mps 733 mmHg 96%
    01:00 +18°C° 0.1 mm 3 mps 733 mmHg 96%
    02:00 +18°C° 0.1 mm 3 mps 733 mmHg 96%
    03:00 +18°C° 0.1 mm 3 mps 733 mmHg 96%
    04:00 +18°C° 0.1 mm 3 mps 733 mmHg 96%
    05:00 +18°C° 0.1 mm 3 mps 733 mmHg 96%
    06:00 +18°C° 0.1 mm 3 mps 733 mmHg 96%
    07:00 +19°C° 0.1 mm 3 mps 733 mmHg 95%
    08:00 +19°C° 0.1 mm 3 mps 733 mmHg 95%
    09:00 +19°C° 0.1 mm 4 mps 733 mmHg 93%
    10:00 +19°C° 0.1 mm 4 mps 733 mmHg 91%
    11:00 +20°C° 0.1 mm 4 mps 733 mmHg 89%
    12:00 +21°C° 0.1 mm 4 mps 733 mmHg 84%
    13:00 +22°C° 0.1 mm 4 mps 733 mmHg 78%
    14:00 +23°C° 0.1 mm 4 mps 733 mmHg 73%
    15:00 +23°C° 0.2 mm 4 mps 733 mmHg 75%
    16:00 +24°C° 0.2 mm 3 mps 733 mmHg 78%
    17:00 +24°C° 0.2 mm 3 mps 733 mmHg 80%
    18:00 +21°C° 0.5 mm 3 mps 733 mmHg 85%
    19:00 +20°C° 0.5 mm 3 mps 733 mmHg 90%
    20:00 +19°C° 0.5 mm 2 mps 732 mmHg 95%
    21:00 +19°C° 0.1 mm 2 mps 732 mmHg 96%
    22:00 +18°C° 0.1 mm 2 mps 732 mmHg 97%
    23:00 +18°C° 0.1 mm 2 mps 732 mmHg 98%

    20 July, Friday

    Time Temperature Precipitation Wind Pressure Humidity
    00:00 +18°C° 0 mm 2 mps 732 mmHg 98%
    01:00 +18°C° 0 mm 2 mps 732 mmHg 98%
    02:00 +18°C° 0 mm 2 mps 732 mmHg 98%
    03:00 +18°C° 0.1 mm 2 mps 732 mmHg 98%
    04:00 +18°C° 0.1 mm 2 mps 732 mmHg 98%
    05:00 +18°C° 0.1 mm 2 mps 732 mmHg 98%
    06:00 +19°C° 0.1 mm 2 mps 732 mmHg 98%
    07:00 +19°C° 0.1 mm 2 mps 732 mmHg 98%
    08:00 +19°C° 0.1 mm 2 mps 732 mmHg 97%
    09:00 +19°C° 0.1 mm 2 mps 732 mmHg 96%
    10:00 +20°C° 0.1 mm 2 mps 732 mmHg 95%
    11:00 +20°C° 0.1 mm 2 mps 732 mmHg 94%
    12:00 +23°C° 0.3 mm 2 mps 732 mmHg 89%
    13:00 +24°C° 0.3 mm 2 mps 732 mmHg 85%
    14:00 +25°C° 0.3 mm 2 mps 732 mmHg 80%
    15:00 +25°C° 0.6 mm 2 mps 732 mmHg 83%
    16:00 +25°C° 0.6 mm 2 mps 732 mmHg 85%
    17:00 +25°C° 0.6 mm 2 mps 732 mmHg 87%
    18:00 +24°C° 0.3 mm 2 mps 732 mmHg 90%
    19:00 +23°C° 0.3 mm 2 mps 732 mmHg 94%
    20:00 +22°C° 0.3 mm 1 mps 732 mmHg 97%
    21:00 +22°C° 0.1 mm 1 mps 732 mmHg 97%
    22:00 +21°C° 0.1 mm 1 mps 732 mmHg 98%
    23:00 +21°C° 0.1 mm 1 mps 732 mmHg 98%

    21 July, Saturday

    Time Temperature Precipitation Wind Pressure Humidity
    00:00 +20°C° 0 mm 1 mps 732 mmHg 98%
    01:00 +20°C° 0 mm 1 mps 732 mmHg 98%
    02:00 +20°C° 0 mm 1 mps 732 mmHg 98%
    03:00 +20°C° 0.1 mm 1 mps 732 mmHg 98%
    04:00 +19°C° 0.1 mm 2 mps 732 mmHg 98%
    05:00 +19°C° 0.1 mm 2 mps 732 mmHg 98%
    06:00 +20°C° 0.3 mm 2 mps 732 mmHg 95%
    07:00 +23°C° 0.3 mm 2 mps 733 mmHg 92%
    08:00 +24°C° 0.3 mm 2 mps 733 mmHg 89%
    09:00 +25°C° 0.3 mm 2 mps 733 mmHg 81%
    10:00 +27°C° 0.3 mm 3 mps 733 mmHg 73%
    11:00 +28°C° 0.3 mm 3 mps 732 mmHg 65%
    12:00 +28°C° 0.5 mm 3 mps 732 mmHg 66%
    13:00 +28°C° 0.5 mm 3 mps 732 mmHg 68%
    14:00 +29°C° 0.5 mm 3 mps 732 mmHg 69%
    15:00 +28°C° 0.9 mm 3 mps 732 mmHg 73%
    16:00 +27°C° 0.9 mm 3 mps 732 mmHg 77%
    17:00 +27°C° 0.9 mm 3 mps 732 mmHg 81%
    18:00 +25°C° 0.1 mm 2 mps 732 mmHg 86%
    19:00 +24°C° 0.1 mm 2 mps 732 mmHg 90%
    20:00 +23°C° 0.1 mm 2 mps 732 mmHg 94%
    21:00 +21°C° 0 mm 2 mps 732 mmHg 95%
    22:00 +21°C° 0 mm 2 mps 732 mmHg 96%
    23:00 +20°C° 0 mm 2 mps 732 mmHg 97%
    Show more